Location: Harstad
(68.8030°N, 16.5460°E)
Time: 19:11:34
(UTC+02:00)

N. Korean satellite - Visible Passes

Search period start: 22 October 2019 00:00
Search period end: 31 October 2019 23:00
Orbit: 455 x 508 km, 97.2° (Epoch: 21 October)

Date Brightness Start Highest point End Pass type
(mag) Time Alt. Az. Time Alt. Az. Time Alt. Az.
22 Oct 9.8 05:52:26 10° NE 05:55:02 19° E 05:57:39 10° SE visible
22 Oct 7.0 07:25:28 10° NNE 07:29:03 71° ESE 07:32:41 10° SSW visible
22 Oct 8.6 18:14:56 10° SSW 18:18:08 33° W 18:21:24 10° NNW visible
23 Oct 10.2 05:27:34 10° NE 05:29:24 13° E 05:31:15 10° ESE visible
23 Oct 7.8 07:00:09 10° NNE 07:03:39 48° ESE 07:07:12 10° S visible
23 Oct 7.7 17:49:16 10° S 17:52:40 49° WSW 17:56:09 10° NNW visible
23 Oct 10.1 19:25:10 10° WSW 19:26:56 13° W 19:28:44 10° NW visible
24 Oct 8.6 06:34:53 10° NNE 06:38:12 33° E 06:41:33 10° SSE visible
24 Oct 9.7 18:58:45 10° SW 19:01:18 19° W 19:03:53 10° NW visible
25 Oct 9.3 06:09:41 10° NE 06:12:40 24° E 06:15:41 10° SE visible
25 Oct 9.1 18:32:43 10° SSW 18:35:43 26° W 18:38:47 10° NNW visible
26 Oct 9.9 05:44:37 10° NE 05:47:05 17° E 05:49:34 10° SE visible
26 Oct 7.2 07:17:33 10° NNE 07:21:10 63° ESE 07:24:50 10° S visible
26 Oct 8.3 18:06:55 10° SSW 18:10:12 38° W 18:13:35 10° NNW visible
26 Oct 10.4 19:43:54 10° W 19:44:38 10° WNW 19:45:23 10° WNW visible
27 Oct 10.3 04:19:52 10° NE 04:21:26 12° ENE 04:22:59 10° ESE visible
27 Oct 8.0 05:52:15 10° NNE 05:55:45 43° E 05:59:16 10° S visible
27 Oct 7.4 16:41:17 10° S 16:44:45 56° WSW 16:48:18 10° NNW visible
27 Oct 10.0 18:16:50 10° WSW 18:18:56 15° W 18:21:04 10° NW visible
28 Oct 8.8 05:26:59 10° NNE 05:30:16 30° E 05:33:33 10° SSE visible
28 Oct 9.5 17:50:33 10° SW 17:53:19 21° W 17:56:07 10° NW visible
29 Oct 9.5 05:01:49 10° NE 05:04:42 22° E 05:07:37 10° SE visible
29 Oct 6.7 06:34:58 10° NNE 06:38:38 83° ESE 06:42:20 10° SSW visible
29 Oct 8.8 17:24:35 10° SSW 17:27:44 29° W 17:30:57 10° NNW visible
30 Oct 10.0 04:36:48 10° NE 04:39:05 16° E 04:41:23 10° ESE visible
30 Oct 7.4 06:09:37 10° NNE 06:13:15 56° ESE 06:16:54 10° S visible
30 Oct 8.0 16:58:50 10° S 17:02:14 43° W 17:05:43 10° NNW visible
30 Oct 10.2 18:35:11 10° W 18:36:36 12° WNW 18:38:02 10° NW visible
31 Oct 10.4 04:12:14 10° ENE 04:13:24 11° ENE 04:14:34 10° E visible
31 Oct 8.3 05:44:19 10° NNE 05:47:48 39° E 05:51:18 10° S visible
31 Oct 7.1 16:33:15 10° S 16:36:47 63° WSW 16:40:24 10° NNW visible
31 Oct 9.9 18:08:31 10° SW 18:10:55 17° W 18:13:20 10° NW visible
